Regional Weather Roundup
Issued by NWS

Home | Current Version | Previous Version | Graphics & Text | Print | Product List | Glossary On
Versions: 1 2 3 4 5 6 7 8 9 10 11 12 13 14 15 16 17 18 19 20 21 22 23 24 25 26 27 28 29 30 31 32 33 34 35 36 37 38 39 40 41 42 43 44 45 46 47 48 49 50
000
ASUS45 KBOU 260207
RWRCO

WEATHER ROUNDUP FOR COLORADO
NATIONAL WEATHER SERVICE DENVER/BOULDER CO
800 PM MDT SAT APR 25 2015

NOTE: "FAIR" INDICATES FEW OR NO CLOUDS BELOW 12000 FEET WITH NO
SIGNIFICANT WEATHER AND/OR OBSTRUCTIONS TO VISIBILITY.

COZ001>005-013-030-031-260300-
...NORTHWEST COLORADO...

CITY           SKY/WX    TMP DP  RH WIND       PRES   REMARKS
CRAIG          CLOUDY    50  36  58 SE3       29.76R
HAYDEN         CLOUDY    48  30  49 N3        29.77S
MEEKER         CLOUDY    45  36  70 VRB6      29.80R
MOUNT WERNER   NOT AVBL
STEAMBOAT SPGS CLOUDY    49  33  54 CALM      29.78S
WALDEN         MOCLDY    37  32  81 SE7       29.84R
$$

COZ006>008-011-260300-
...WEST CENTRAL VALLEYS...

CITY           SKY/WX    TMP DP  RH WIND       PRES   REMARKS
GRAND JUNCTION CLOUDY    47  44  90 E7        29.73F FOG
MONTROSE       CLOUDY    45  42  89 N3        29.79S
EAGLE          CLOUDY    50  36  57 SE15      29.80R
RIFLE          CLOUDY    46  41  82 W9        29.78R
DELTA          CLOUDY    49  44  82 MISG      29.77S
NUCLA          CLOUDY    46  41  81 E8        29.78F
$$

COZ017>023-064>068-260300-
...SOUTHWEST COLORADO...

CITY           SKY/WX    TMP DP  RH WIND       PRES   REMARKS
DURANGO        CLOUDY    47  36  65 E5        29.80S
CORTEZ         PTCLDY    49  38  65 N7        29.76F
PAGOSA SPRINGS CLOUDY    43  32  66 N5        29.87S
TELLURIDE      LGT SNOW  36  34  92 SE8       29.89S
WOLF CREEK PAS NOT AVBL
$$

COZ009-010-012-014-032>034-037-058>063-260300-
...CENTRAL COLORADO...

CITY           SKY/WX    TMP DP  RH WIND       PRES   REMARKS
ASPEN          CLOUDY    42  35  76 CALM      29.80S
BUENA VISTA    MOCLDY    48  29  48 CALM      29.80S
COPPER MTN     CLOUDY    32  27  80 SE6       29.96S WCI  26
BERTHOUD PASS  HVY SNOW  23  16  74 MISG      29.99S VSB<1/4
COTTONWOOD PAS MOCLDY    43  28  56 CALM      29.88S
GUNNISON       CLOUDY    46  30  53 CALM      29.83R
KREMMLING      DRIZZLE   41  34  75 S13       29.85R
LEADVILLE      MOCLDY    34  27  75 N3        29.87S
SALIDA         MOCLDY    50  33  51 CALM      29.85S
SUNLIGHT       LGT SNOW  32  32 100 CALM      29.93S VSB 3/4
WILKERSON PASS CLOUDY    32  27  80 S7        29.97S WCI  26
$$

COZ069>075-260300-
...SAN LUIS VALLEY/SANGRE DE CRISTO MOUNTAINS...

CITY           SKY/WX    TMP DP  RH WIND       PRES   REMARKS
ALAMOSA        PTCLDY    48  27  44 SW15      29.81R
LA VETA PASS   PTCLDY    39  27  60 S16G24    29.92S
SAGUACHE       MOCLDY    48  27  43 W8        29.80R
$$

COZ035-036-038>040-260300-
...NORTHERN COLORADO FRONT RANGE...

CITY           SKY/WX    TMP DP  RH WIND       PRES   REMARKS
DENVER INTL AP MOCLDY    54  38  54 N12       29.72S
DMNS CITY PARK   N/A     58  32  36 W8G14     29.73R
AURORA         MOCLDY    55  35  46 SW6       29.76R
FRONT RANGE AP NOT AVBL
ERIE MUNI ARPT CLOUDY    56  36  46 N5        29.74R
BOULDER MUN AP CLOUDY    55  36  47 N3        29.74R
CENTENNIAL     CLOUDY    53  37  54 SW9       29.76R
BROOMFIELD     MOCLDY    57  36  44 N6        29.77R
FORT COLLINS   MOCLDY    55  39  54 E9        29.76R
LONGMONT       MOCLDY    57  37  47 N7        29.76R
$$

COZ041-046-047-076>085-087-088-260300-
...PIKES PEAK/PALMER DIVIDE AND SOUTHERN FOOTHILLS...

CITY           SKY/WX    TMP DP  RH WIND       PRES   REMARKS
COLO. SPRINGS  CLOUDY    58  28  32 CALM      29.75R
A. F. ACADEMY  CLOUDY    53  33  47 N8        29.76R
ELLICOTT       CLOUDY   N/A N/A N/A S5        29.74R
FALCON         CLOUDY    53  26  36 SE5       29.79R
FORT CARSON    CLOUDY    57  32  39 N2        29.72R
LIMON          CLOUDY    60  31  33 SE16      29.74R
MONUMENT HILL  CLOUDY    46  34  61 NW6       29.79R
TRINIDAD       MOCLDY    61  26  26 W5        29.69S
$$

COZ042>045-048>051-090-091-260300-
...NORTHEAST COLORADO...

CITY           SKY/WX    TMP DP  RH WIND       PRES   REMARKS
GREELEY ARPT   CLOUDY    52  41  66 E16G22    29.75R
AKRON          MOCLDY    59  39  47 SE7       29.72R
BURLINGTON     PTCLDY    57  42  57 E9        29.72R
WRAY           MOCLDY    63  46  53 E15       29.71R
STERLING       TSTM      50  45  81 N21G35    29.70R
HOLYOKE        MOCLDY    61  46  59 E13       29.73R
FORT MORGAN    CLOUDY    49  43  79 N28G37    29.73S
$$

COZ086-089-092>099-260300-
...SOUTHEAST COLORADO...

CITY           SKY/WX    TMP DP  RH WIND       PRES   REMARKS
PUEBLO         CLOUDY    67  23  19 SE12      29.65R
LA JUNTA       CLOUDY    68  30  24 E21G28    29.65R
LAMAR          PTCLDY    66  36  32 E12       29.65R
SPRINGFIELD      N/A     62  30  29 SE12      29.69R
$$



USA.gov is the U.S. government's official web portal to all federal, state and local government web resources and services.